Zurück zum Katalog

STARLINK-38080

AktivKommunikationSSO
NORAD 69989·PAYLOAD·🇺🇸 United States

Gestartet Jul 11, 2026 von Vandenberg Space Force Base

Loading…

Nächste Überflüge (nächste 24 Stunden)

TLE

AktuellSource: CelesTrak SupGP

Epoche: Sep 14, 2026, 22:36 UTC

1 69989C 26159Q   26257.94215278 -.02572100  00000+0 -41561-1 0  2577
2 69989  97.2849  99.7166 0002061  90.7554  43.2381 15.54204708    17

Verfolge STARLINK-38080 in Echtzeit mit AllMySat

Download on the App Store